Regional Weather Roundup
Issued by NWS Grand Forks, ND

Home | Current Version | Previous Version | Graphics & Text | Print | Product List | Glossary On
Versions: 1 2 3 4 5 6 7 8 9 10 11 12 13 14 15 16 17 18 19 20 21 22 23 24 25 26 27 28 29 30 31 32 33 34 35 36 37 38 39 40 41 42 43 44 45 46 47 48 49 50
644
ASUS43 KFGF 230831
RWRFGF
PRAIRIE TO PINES  WEATHER ROUNDUP
NATIONAL WEATHER SERVICE EASTERN NORTH DAKOTA/GRAND FORKS ND
300 AM CDT SUN JUL 23 2017

 **SATELLITE DATA USED TO AUGMENT SKY COVER AT AUTOMATED STATIONS**
 *****  WEATHER ACROSS EASTERN NORTH DAKOTA  *****

CITY           SKY/WX    TMP DP  RH WIND       PRES   REMARKS
GRAND FORKS    CLOUDY    64  61  90 NW9       29.91S
GRAND FRKS AFB CLOUDY    62  60  92 N8        29.92S
DEVILS LAKE    FAIR      60  58  92 N8        29.99S
FARGO          FAIR      62  59  90 NW9       29.91S
WAHPETON ARPT  FAIR      57  54  88 W7        29.92F
$$

 ***** WEATHER ACROSS CENTRAL AND WESTERN NORTH DAKOTA  *****

CITY           SKY/WX    TMP DP  RH WIND       PRES   REMARKS
BISMARCK       FAIR      63  55  75 NW5       30.04S
MINOT          FAIR      59  53  80 W5        30.02F
JAMESTOWN      FAIR      60  56  86 NW8       29.97S
MINOT AFB      FAIR      52  50  94 NW6       30.01F
GARRISON         N/A     54  52  93 NW6       30.04S
WILLISTON      FAIR      62  53  72 CALM      30.05F
DICKINSON      FAIR      59  51  75 CALM      30.06F
HETTINGER      FAIR      58  48  69 E3        30.09F
$$

 *****  OTHER AIRPORT OBSERVATIONS IN OUR AREA  *****

CITY           SKY/WX    TMP DP  RH WIND       PRES   REMARKS
WALHALLA       NOT AVBL
GRAFTON AIRPOR PTSUNNY   63  61  94 NW12      29.94S
VALLEY CITY AR FAIR      59  59 100 NW9       29.97S
CANDO          NOT AVBL
CAVALIER APRT  FAIR      61  59  94 NW10      29.93S
GWINNER        SUNNY     63  59  88 NW8       29.95S
SHEYENNE NWR     N/A     59  59 100 NW3       29.95S
ROLLA            N/A     55  55 100 N7        30.01F
 ***** THE ABOVE OBSERVATIONS ARE NON NWS ARE NOT QUALITY
       CONTROLLED AND MAY MIS-REPORT RAIN FOR SNOW...
$$

  *****  WEATHER ACROSS NORTHERN MINNESOTA  *****

CITY           SKY/WX    TMP DP  RH WIND       PRES   REMARKS
FLAG ISLAND    FAIR      64  61  88 NE7       29.86S
WARROAD        CLOUDY    61  55  82 W7        29.88S
ROSEAU         CLOUDY    61  55  82 NW6       29.89S
HALLOCK        CLOUDY    63  61  94 N9        29.91S
THF RVR FALLS  CLOUDY    62  60  93 NW9       29.91S
BAUDETTE       FAIR      58  58 100 NW3       29.85F
WASKISH        CLOUDY    61  57  88 NW6       29.86S
CROOKSTON      CLOUDY    63  61  94 N9        29.91S
STEPHEN NDAWN    N/A    N/A N/A N/A N10         N/A
GREENBUSH NDAW   N/A     61  59  94 NW3         N/A
$$
  *****  WEATHER ACROSS CENTRAL AND WEST MINNESOTA  *****

CITY           SKY/WX    TMP DP  RH WIND       PRES   REMARKS
FOSSTON        CLOUDY    57  57 100 NW7       29.90S
BEMIDJI        CLOUDY    60  58  92 NW7       29.87S
PARK RAPIDS    MOCLDY    61  58  90 NW7       29.88F
ELBOW LAKE     FAIR      61  59  94 NW7       29.91F
WADENA         MOCLDY    61  55  82 W3        29.89S
DETROIT LAKES  CLOUDY    61  59  94 NW9       29.91F
MOORHEAD       FAIR      59  57  94 NW5       29.92S
FERGUS FALLS   FAIR      59  59 100 NW5       29.91S
MORRIS MN      FAIR      63  57  82 NW6       29.90S
STAPLES        FAIR      57  55  94 W5        29.88F
$$
  *****  WEATHER ELSEWHERE ACROSS MINNESOTA  *****

CITY           SKY/WX    TMP DP  RH WIND       PRES   REMARKS
DULUTH         CLOUDY    53  53 100 CALM      29.84S
INTRNTL FALLS  MOCLDY    61  59  93 E7        29.84R
ELY            CLOUDY    59  59 100 CALM      29.83S
CLOQUET        FOG       55  54  94 CALM      29.84S VSB<1/4
WHEATON        FAIR      63  57  82 NW5       29.93F
BRAINERD       FAIR      64  57  78 NW6       29.86F
HIBBING        FAIR      59  58  96 NW7       29.83S
ALEXANDRIA     FAIR      64  58  80 NW8       29.91F
SAINT CLOUD    FAIR      64  58  80 NW7       29.86S
MINNEAPOLIS    MOCLDY    72  59  63 N6        29.83S
$$

  *****  WEATHER ACROSS SOUTH DAKOTA  *****

CITY           SKY/WX    TMP DP  RH WIND       PRES   REMARKS
SIOUX FALLS    FAIR      67  62  84 NW9       29.93F
BROOKINGS      FAIR      64  59  83 CALM      29.96S
WATERTOWN      FAIR      61  58  90 W3        29.96R
HURON          FAIR      62  60  93 NW5       29.97S
SISSETON         N/A     62  59  90 NW7       29.93S
ABERDEEN       FAIR      62  58  86 NW5       29.97F
MITCHELL       FAIR      66  58  75 N7        29.96S
PIERRE         FAIR      64  50  60 NE7       30.01R
MOBRIDGE       FAIR      61  56  83 CALM      30.01S
RAPID CITY     FAIR      62  44  51 N8        30.12S
$$

  *****  SOME WEATHER IN NEARBY STATES *****

CITY           SKY/WX    TMP DP  RH WIND       PRES   REMARKS
GLASGOW MT     FAIR      64  47  53 MISG      30.03F
GREAT FALLS MT FAIR      61  40  45 SW8       30.09S
CHEYENNE WY    FAIR      61  49  64 W8        30.26F
SCOTTSBLUFF NE FAIR      65  51  60 E6        30.12F
OMAHA NE       FOG       69  66  90 N3        29.92F VSB 3/4
DES MOINES IA  FAIR      75  73  93 SW5       29.87S
DAVENPORT IA   FAIR      73  72  96 W6        29.84S
CHICAGO IL     FAIR      73  70  90 CALM      29.79S
EAU CLAIRE WI  FAIR      64  64 100 CALM      29.80F
LA CROSSE WI   FOG       70  69  97 S7        29.80F VSB 1/2
$$

  *****  SOME NATIONAL WEATHER *****

CITY           SKY/WX    TMP DP  RH WIND       PRES   REMARKS
LA GUARDIA NY  LGT RAIN  73  70  90 CALM      29.73R
RALEIGH NC     FAIR      81  73  76 SW9       29.85F
ATLANTA GA     FAIR      76  74  93 SW9       29.96F
NEW ORLEANS LA FAIR      77  74  90 SW3       29.97S
OKLAHOMA CITY  FAIR      79  70  74 S7        29.88F
ALBUQUERQUE NM CLOUDY    70  56  61 E3        30.21F
SALT LAKE CITY FAIR      76  48  37 S5        30.06S
LOS ANGELES CA FAIR      68  63  84 W7        29.89F
BOISE ID       FAIR      69  37  30 SE7       30.00F
SEATTLE WA     MOCLDY    67  59  75 N10       30.11S
$$

*** WEATHER ACROSS MANITOBA...SASKATCHEWAN AND ONTARIO ***
                ***ONTARIO***

CITY           SKY/WX    TMP DP  RH WIND       PRES   REMARKS
GERALDTON      PTCLDY    50  48  93 CALM      29.90S
THUNDER BAY    CLOUDY    61  59  94 E3        29.83S
SIOUX LOOKOUT  PTCLDY    59  57  94 NE3       29.89F
TORONTO        MOCLDY    70  66  88 CALM      29.77F
BIG TROUT LK   CLEAR     54  45  71 E5        29.99S
PICKLE LAKE    NOT AVBL
DRYDEN         CLEAR     61  59  94 NE7       29.88F
KENORA         PTCLDY    59  59 100 N5        29.90R
$$
                *** MANITOBA***

CITY           SKY/WX    TMP DP  RH WIND       PRES   REMARKS
BRANDON        CLEAR     54  54 100 N6        30.00S
DAUPHIN        CLEAR     55  54  94 W7        29.99S
ISLAND LAKE    NOT AVBL
PILOT MOUND      N/A     55  54  94 NW6         N/A
THE PAS        CLEAR     57  52  82 S5        29.94F
THOMPSON       PTCLDY    46  43  87 CALM      29.90F
WINNIPEG       CLEAR     54  54 100 NW6       29.94S
LYNN LAKE      CLEAR     59  46  63 SW7       29.86F
CHURCHILL      PTCLDY    57  50  77 S7        29.80F
GILLAM         PTCLDY    57  45  62 S8        29.91
$$
                ***SASKATCHEWAN***

CITY           SKY/WX    TMP DP  RH WIND       PRES   REMARKS
ESTEVAN        PTCLDY    54  54 100 NE6       30.04S
KINDERSLEY     PTCLDY    57  54  88 S7        29.97S
LLOYDMINSTER   PTCLDY    61  57  88 S9        29.93F
PRINCE ALBERT  PTCLDY    55  54  94 S3        29.96F
REGINA         NOT AVBL
YORKTON        CLEAR     55  55 100 SW3       30.01S
N. BATTLEFORD  CLEAR     57  55  94 SE7       29.96F
LA RONGE       MOCLDY    63  55  77 S6        29.89F
SASKATOON      PTCLDY    59  57  94 S6        29.97F
SWIFT CURRENT  CLEAR     61  50  67 S12       30.02F
$$
NOTE: THESE ARE AUTOMATED STATIONS WITH LIMITED QUALITY CONTROL
      "FAIR" INDICATES FEW OR NO CLOUDS BELOW 12,000 FEET WITH NO
      SIGNIFICANT WEATHER AND/OR OBSTRUCTIONS TO VISIBILITY.
      SKY/WX - SKY CONDITION AND SIGNIFICANT WEATHER.
      TMP - AIR TEMPERATURE.    DP   - DEWPOINT TEMPERATURE.
      RH  - RELATIVE HUMIDITY.  PRES - PRESSURE.
      HX  - HEAT INDEX.         WCI  - WIND CHILL INDEX.
$




USA.gov is the U.S. government's official web portal to all federal, state and local government web resources and services.